COSMOS 567

导读

COSMOS 567是前苏联(归属独联体CIS)发射的“宇宙”系列无人卫星,于1973年6月8日08:00发射入轨。“宇宙”系列卫星承担多类任务,涵盖科学研究、空间技术试验与军事应用等方向,冷战时期常为苏联航天任务提供平台支持。作为该系列早期成员,COSMOS 567服务于航天技术验证或空间环境探测,是苏联早期航天探索的典型载体,推动了当时空间技术的积累与发展。

基本信息
目录编号:
6678
目录名称:
COSMOS 567
国际标识:
1973-037D
轨道中心:
EARTH
卫星名称:
COSMOS 567
卫星全名:
--
卫星状态:
在轨 (已飞行19365 天)
发射日期:
1973-06-08 UTC
国别 :
俄罗斯(独联体) (CIS)
星等 :
--
轨道信息
数据来源 国际轨道数据 AOE轨道数据
星历时间 2026-06-15T07:43:59+0800
7小时前
查看轨道信息
2026-06-13T06:00:00+0800
2天前
查看轨道信息
半长轴 7825.5km 7825.499km
偏心率 0.0045387 0.0045443
轨道倾角 74.017° 74.017°
近地点辐角 341.935° 345.065°
升交点赤经 121.263° 124.040°
平近点角 82.912° 87.307°
近地点 1411.845km 1411.8km
远地点 1482.881km 1482.924km
周期 114.823分钟 114.823分钟
每日圈数 12.541073 12.541075
详细信息
使用方式:
暂无
2D轨道图
3D轨道图
轨道高度分析图
轨道倾角分析图
轨道综合分析图
查看轨道综合分析图